Preview of NWS' New Version of Forecast
This preview is not operational and should not be used for support decisions.
Latest weather observations around

West Memphis, West Memphis Municipal Airport (KAWM)

Using English Units (Switch to International System of Units)
Date/ Time (CST) Wind (mph) Vis. (mi) Weather Sky Cond. Temp (°F) Rel. Humidity Wind Chill (°F) Heat Index (°F) Pressure Precip. (in)
Air Dwpt 6 hour Altimeter (inHg) Sea level (inHg) 1 hr 3 hr 6 hr
Max Min
Feb 25 03:53 NNW 10 10 Clear CLR 48 39     71% 43   30.02 30.01      
Feb 25 02:53 NW 11 10 Clear CLR 50 41     71% 46   30.01 30   0  
Feb 25 02:35 NNW 15 10 Partly Cloudy SCT021 52 47     83%     30.01        
Feb 25 01:53 WNW 6 10 Mostly Cloudy BKN017 56 53     90%     29.98 29.97      
Feb 25 00:53 7 10 Cloudy FEW080 OVC110 57 56     96%     29.96 29.95 0    
Feb 25 00:03 WSW 7 10 Light Rain SCT014 OVC085 57 56     96%     29.94   0    
Feb 24 23:53 SW 7 10 Cloudy BKN014 OVC085 56 55     97%     29.94 29.94 0   1
Feb 24 23:30 WSW 7 10 Light Rain OVC014 56 55     97%     29.93   0    
Feb 24 23:07 SW 6 10 Light Rain BKN015 OVC110 56 54     93%     29.91   0    
Feb 24 22:53 SW 7 10 Light Rain SCT016 OVC100 55 55     100%     29.9 29.89 0    
Feb 24 21:53 SSW 11 10 Light Rain FEW055 FEW065 OVC110 56 56     100%     29.88 29.87 0    
Feb 24 20:53 SSW 10 3 Rain and Fog/Mist BKN055 OVC075 57 57     100%     29.87 29.86 0 1  
Feb 24 19:53 WSW 11 4 Rain and Fog/Mist BKN055 OVC075 60 59     96%     29.85 29.85 0    
Feb 24 19:45 W 11 4 Heavy Rain and Fog/Mist BKN055 OVC080 60 59     96%     29.85   0    
Feb 24 19:32 WSW 8 6 Light Rain and Fog/Mist FEW010 BKN039 OVC080 62 62     100%     29.85   0    
Feb 24 19:22 W 13 3 Thunderstorms and Rain and Fog/Mist FEW012 BKN026 OVC075 62 62     100%     29.85   0    
Feb 24 19:18 W 13 1.25 Thunderstorms and Rain and Fog/Mist FEW012 BKN019 OVC055 62 62     100%     29.85   0    
Feb 24 19:08 W 14 0.75 Thunderstorms and Heavy Rain and Fog/Mist BKN014 BKN027 OVC070 63 63     100%     29.84   0    
Feb 24 19:04 W 16 1.75 Thunderstorms and Heavy Rain and Fog/Mist SCT014 BKN027 OVC070 65 63     93%     29.83   0    
Feb 24 18:53 W 9 10 Cloudy FEW046 OVC065 72 65     79%   73 29.78 29.77      
Feb 24 18:41 SSW 15 10 Cloudy BKN065 OVC075 72 66     82%   73 29.77        
Feb 24 17:53 S 22 10 Cloudy and Windy BKN070 BKN080 OVC100 72 66     82%   73 29.75 29.74 0   0
Feb 24 16:53 S 22 10 Light Rain BKN110 71 68     90%   72 29.73 29.72 0    
Feb 24 15:53 S 22 4 Light Rain and Fog/Mist FEW080 OVC100 70 67     90%     29.76 29.75 0    
Feb 24 14:53 S 24 10 Partly Cloudy and Windy FEW042 SCT060 SCT100 72 67     84%   73 29.79 29.78   0  
Feb 24 13:53 S 24 10 Mostly Cloudy and Windy FEW030 SCT045 BKN095 72 68     87%   73 29.81 29.8      
Feb 24 13:39 S 23 9 Mostly Cloudy and Windy SCT025 SCT045 BKN090 71 68     90%   72 29.81        
Feb 24 12:53 S 20 8 Mostly Cloudy and Windy SCT020 BKN024 BKN032 70 68     93%     29.84 29.83 0    
Feb 24 12:21 S 20 7 Light Rain SCT017 BKN024 OVC060 68 68     100%     29.87   0    
Feb 24 12:02 S 13 5 Light Rain and Fog/Mist FEW012 BKN017 OVC025 67 67     100%     29.89   0    
Feb 24 11:53 S 11 8 Light Rain OVC014 65 65     100%     29.9 29.89 0   0
Feb 24 11:44 S 11 8 Light Rain BKN012 OVC017 65 64     97%     29.9   0    
Feb 24 11:36 S 10 3 Light Rain and Fog/Mist BKN012 BKN019 OVC027 63 63     100%     29.9   0    
Feb 24 11:34 S 10 1.75 Light Rain and Fog/Mist FEW009 BKN012 OVC035 63 63     100%     29.9   0    
Feb 24 11:26 S 9 1.75 Light Rain and Fog/Mist SCT010 BKN015 OVC038 63 62     97%     29.91   0    
Feb 24 11:21 SSW 8 3 Light Rain and Fog/Mist SCT013 BKN026 OVC036 63 62     97%     29.91   0    
Feb 24 11:17 SSW 9 2 Light Rain and Fog/Mist SCT022 BKN034 OVC060 63 63     100%     29.92   0    
Feb 24 11:01 SSW 10 0.75 Thunderstorms and Heavy Rain and Fog/Mist FEW010 BKN036 OVC100 65 65     100%     29.93   0    
Feb 24 10:53 SW 11 2.5 Thunderstorms and Rain and Fog/Mist FEW010 BKN080 OVC100 66 65     96%     29.92 29.92 0    
Feb 24 10:30 S 18 5 Thunderstorms and Rain and Fog/Mist BKN010 OVC014 67 67     100%     29.93   0    
Feb 24 10:10 S 16 6 Fog/Mist OVC010 67 67     100%     29.95        
Feb 24 09:53 S 17 7 Cloudy OVC008 67 67     100%     29.95 29.94 0    
Feb 24 08:53 S 13 6 Fog/Mist OVC007 67 67     100%     29.99 29.98 0 0  
Feb 24 08:24 S 11 6 Light Rain and Fog/Mist BKN009 OVC014 66 66     100%     29.99   0    
Feb 24 08:15 S 11 6 Fog/Mist SCT009 BKN014 OVC019 66 66     100%     29.99        
Feb 24 08:00 S 11 6 Fog/Mist FEW008 OVC017 66 66     100%     29.99        
Feb 24 07:53 S 11 6 Fog/Mist SCT011 OVC019 66 66     100%     29.99 29.99      
Feb 24 06:53 SSW 14 6 Fog/Mist FEW007 BKN020 OVC110 66 66     100%     30 29.99      
Feb 24 06:46 SSW 9 6 Fog/Mist FEW007 BKN020 OVC024 66 66     100%     30        
Feb 24 05:53 S 13 8 Cloudy OVC005 64 64     100%     29.99 29.98     0
Feb 24 05:23 SSW 10 9 Cloudy OVC005 64 64     100%     30        
Feb 24 04:53 SSW 10 9 Cloudy OVC004 64 64     100%     30 29.99      
Feb 24 04:03 S 10 5 Fog/Mist OVC003 62 62     100%     29.99        
Feb 24 03:53 S 10 2.5 Fog/Mist OVC003 62 62     100%     29.99 29.98 0    
Feb 24 03:23 SSE 9 5 Fog/Mist OVC004 60 60     100%     29.99   0    
Feb 24 02:53 SE 6 5 Fog/Mist BKN008 BKN014 OVC027 59 59     100%     30.01 30      
Feb 24 02:37 SE 7 8 Cloudy SCT006 BKN014 OVC028 59 59     100%     30.02        
Feb 24 02:24 SE 7 8 Cloudy BKN006 OVC014 59 59     100%     30.02        
Feb 24 01:53 ESE 7 9 Cloudy SCT006 OVC015 59 59     100%     30.04 30.03      
Feb 24 01:04 E 7 9 Cloudy OVC009 59 59     100%     30.06        
Feb 24 00:53 E 6 10 Cloudy OVC010 59 59     100%     30.07 30.06      
Feb 23 23:53 E 7 10 Cloudy OVC014 59 59     100%     30.09 30.09     0
Feb 23 22:53 ESE 7 10 Cloudy OVC019 59 58     96%     30.11 30.11      
Feb 23 21:53 ESE 6 10 Cloudy OVC019 58 58     100%     30.14 30.14 0    
Feb 23 20:53 ESE 7 10 Cloudy OVC017 57 57     100%     30.17 30.16      
Feb 23 19:53 E 7 10 Cloudy OVC016 56 56     100%     30.18 30.18      
Feb 23 19:22 NE 10 10 Cloudy SCT008 OVC015 56 56     100%     30.18        
Feb 23 18:53 NNE 13 10 Cloudy OVC009 57 56     96%     30.19 30.18      
Feb 23 17:53 N 8 10 Cloudy OVC009 59 58     96%     30.19 30.19      
Feb 23 17:30 N 8 10 Cloudy BKN009 BKN038 OVC085 59 58     96%     30.2        
Feb 23 17:07 ENE 8 10 Cloudy SCT007 BKN040 OVC090 59 58     96%     30.18        
Feb 23 16:53 N 8 10 Cloudy BKN006 OVC040 59 58     96%     30.19 30.19      
Feb 23 15:53 N 8 10 Mostly Cloudy BKN006 BKN090 61 60     97%     30.18 30.18      
Feb 23 15:28 N 8 10 Cloudy BKN005 OVC090 61 60     97%     30.18        
Feb 23 14:53 3 9 Cloudy OVC003 59 59     100%     30.21 30.2      
Feb 23 13:53 N 7 4 Fog/Mist OVC003 58 58     100%     30.22 30.22      
Feb 23 13:25 N 7 6 Fog/Mist OVC003 59 59     100%     30.23        
Feb 23 12:53 N 7 10 Cloudy OVC006 61 60     97%     30.24 30.24      
Feb 23 11:53 Calm 10 Cloudy OVC007 61        %     30.26 30.26     0
Feb 23 10:53 Calm 10 Cloudy OVC007 61        %     30.28 30.28      
Feb 23 10:10 S 3 10 Cloudy OVC009 59        %     30.29        
Feb 23 09:53 S 3 9 Cloudy BKN010 OVC070 57        %     30.28 30.28      
Feb 23 09:49 S 3 8 Cloudy BKN010 OVC070 57        %     30.29        
Feb 23 08:53 SE 7 6 Haze SCT009 BKN041 OVC050 55        %     30.29 30.29 0 0  
Feb 23 08:32 SSE 5 5 Haze OVC009 54        %     30.3   0    
Feb 23 08:20 Calm 5 Fog/Mist BKN010 BKN013 OVC020 54 53     97%     30.31   0    
Feb 23 08:12 SSW 3 2 Light Rain and Fog/Mist FEW004 BKN010 OVC020 53 53     100%     30.31   0    
Feb 23 07:53 Calm 1.75 Light Rain and Fog/Mist OVC004 53 53     100%     30.3 30.3 0    
Feb 23 07:44 Calm 2.5 Fog/Mist OVC004 53 53     100%     30.29        
Feb 23 07:24 ENE 6 4 Fog/Mist OVC005 53 53     100%     30.28        
Feb 23 06:53 5 5 Fog/Mist OVC004 52 52     100%     30.27 30.27      
Feb 23 06:43 NNW 6 5 Fog/Mist OVC004 53 53     100%     30.27        
Feb 23 05:53 5 8 Cloudy OVC006 55 55     100%     30.24 30.24     0
Feb 23 05:06 W 5 8 Cloudy BKN006 OVC017 56 56     100%     30.22        
Feb 23 04:53 W 3 9 Cloudy SCT006 BKN018 OVC048 57 57     100%     30.21 30.21      
Feb 23 04:50 Calm 9 Cloudy SCT006 BKN018 OVC048 57 57     100%     30.21        
Feb 23 04:36 S 8 9 Cloudy SCT020 SCT026 OVC049 57 57     100%     30.21        
Feb 23 03:53 S 8 8 Cloudy BKN021 BKN029 OVC070 56 56     100%     30.2 30.19      
Feb 23 03:03 SSE 8 8 Cloudy BKN029 OVC085 54 54     100%     30.2        
Feb 23 02:53 SSE 7 8 Mostly Cloudy SCT027 BKN033 BKN075 53 53     100%     30.2 30.19   0  
Feb 23 01:53 ESE 10 10 Cloudy FEW012 BKN033 OVC042 53 53     100%     30.21 30.21      
Feb 23 00:53 Calm 10 Cloudy SCT038 BKN070 OVC080 52 52     100%     30.23 30.23 0    
Feb 23 00:42 E 5 10 Cloudy FEW013 BKN037 OVC080 52 52     100%     30.22   0    
Feb 23 00:34 ENE 7 10 Cloudy SCT009 BKN039 OVC080 51 51     100%     30.22   0    
Feb 23 00:26 ENE 7 10 Light Rain SCT005 BKN015 OVC049 51 51     100%     30.22   0    
Feb 23 00:12 NNW 9 3 Thunderstorms and Heavy Rain and Fog/Mist OVC003 50 50     100% 46   30.26   0    
Feb 22 23:53 N 5 5 Fog/Mist OVC003 51 51     100%     30.22 30.22     0
Feb 22 23:27 5 6 Fog/Mist OVC003 51 51     100%     30.22        
Feb 22 22:53 NW 3 7 Cloudy OVC004 52 52     100%     30.22 30.22      
Feb 22 22:21 NE 6 6 Fog/Mist BKN003 OVC060 53 53     100%     30.21        
Feb 22 22:07 NNE 5 6 Fog/Mist SCT005 BKN060 OVC075 53 53     100%     30.21        
Feb 22 21:53 NE 6 6 Fog/Mist BKN005 BKN009 OVC060 52 52     100%     30.22 30.22 0    
Feb 22 21:35 Calm 6 Light Rain and Fog/Mist BKN004 OVC010 52 52     100%     30.23   0    
Feb 22 21:28 Calm 2.5 Light Rain and Fog/Mist BKN004 OVC055 53 53     100%     30.23   0    
Feb 22 21:20 Calm 4 Light Rain and Fog/Mist BKN004 OVC055 53 53     100%     30.24   0    
Feb 22 20:53 SE 8 8 Light Rain SCT005 OVC055 53 53     100%     30.23 30.23 0 0  
Feb 22 19:53 ENE 6 8 Light Rain OVC005 51 51     100%     30.24 30.24 0    
Feb 22 18:53 NE 8 10 Cloudy OVC007 50 50     100% 47   30.25 30.25 0    
Feb 22 18:07 ENE 8 10 Cloudy BKN006 OVC010 50 50     100% 47   30.26   0    
Feb 22 17:53 NE 7 9 Light Rain BKN004 OVC010 50 50     100% 47   30.26 30.27 0   0
Feb 22 17:17 NNE 8 3 Fog/Mist OVC004 49 49     100% 45   30.27        
Feb 22 16:53 N 6 2.5 Fog/Mist BKN006 OVC009 49 49     100% 46   30.28 30.28      
Feb 22 16:29 NNW 6 7 Cloudy OVC009 50 50     100% 48   30.29        
Feb 22 15:53 Calm 10 Cloudy OVC010 51 51     100%     30.29 30.29 0    
Feb 22 14:53 NNE 5 9 Cloudy OVC014 52 49     89%     30.28 30.27      
Feb 22 13:53 Calm 9 Cloudy OVC021 50        %     30.29 30.29      
Feb 22 12:53 Calm 9 Cloudy SCT008 OVC024 48        %     30.32 30.33      
Feb 22 11:53 ESE 5 10 Cloudy OVC007 46        % 44   30.35 30.35      
Feb 22 10:53 NE 7 10 Cloudy OVC005 45        % 41   30.38 30.39      
Feb 22 10:34 NNE 7 6 Haze OVC005 45        % 41   30.38        
Feb 22 09:53 N 7 5 Haze OVC004 43        % 39   30.38 30.38      
Feb 22 09:48 N 8 4 Haze OVC004 43        % 38   30.37        
Feb 22 09:38 NNE 7 2.5 Fog/Mist OVC004 43        % 39   30.37        
Feb 22 09:09 N 9 1.75 Fog/Mist OVC004 43        % 37   30.36        
Feb 22 08:53 N 8 5 Haze OVC003 43        % 38   30.36 30.37      
Feb 22 08:42 N 8 3 Fog/Mist OVC003 43        % 38   30.37        
Feb 22 08:32 N 9 2.5 Fog/Mist OVC003 41        % 35   30.36        
Feb 22 08:19 N 9 3 Fog/Mist OVC003 41        % 35   30.35        
Feb 22 08:01 N 9 2 Fog/Mist OVC003 41        % 35   30.34        
Feb 22 07:53 N 8 1.75 Fog/Mist OVC003 41        % 36   30.34 30.34      
Feb 22 07:51 N 10 2 Fog/Mist OVC003 41        % 35   30.34        
Feb 22 06:53 N 11 1.5 Fog/Mist OVC004 39        % 32   30.32 30.32      
Feb 22 06:05 N 10 1.75 Fog/Mist OVC004 39        % 33   30.3        
Feb 22 05:53 N 10 2 Fog/Mist OVC004 39        % 33   30.3 30.3     0
Feb 22 05:29 N 7 2.5 Fog/Mist OVC004 39        % 34   30.28        
Feb 22 04:53 NNW 8 10 Cloudy OVC006 39        % 34   30.28 30.28      
Feb 22 03:53 NNW 9 10 Cloudy OVC006 41        % 35   30.25 30.25 0    
Jun 11 15:53 SSW 15 10 Clear CLR 89 65     45%   91 30.01 30      
Jun 08 23:53 Calm 10 Clear CLR 62 59     90%     29.93 29.92      
Jun 08 22:53 Calm 10 Clear CLR 64 60     87%     29.92 29.91      
Jun 08 18:53 ENE 7 10 Clear CLR 77 51     40%   76 29.9 29.89      
Jun 08 11:53 NNE 11 10 Partly Cloudy SCT050 74 57     56%   74 30 29.99      
Jun 07 14:53 NE 15 10 Clear CLR 82 53     37%   81 29.92 29.91      
Jun 07 10:53 NE 10 10 Clear CLR 78 58     50%   78 29.96 29.94      
Jun 07 08:53 NNE 11 10 Clear CLR 72 60     66%   72 29.96 29.94      
Notice The following observation data may not be complete
Jun 06 07:01   1 Fog/Mist VV002          %              
Jun 06 05:53 NE 5 0.25 Fog VV002 71 71     100%   73 29.79 29.78      
Jun 06 05:30 NE 3 0.75 Fog/Mist VV002 71 71     100%   73 29.79        
Jun 05 13:53 S 7 10 Cloudy BKN023 BKN031 OVC060 79 71     77%   82 29.76 29.75